GW1554 Weather Reports


time (UTC)temp
C
wind
direction
speed
KPH
gust
KPH
rain 1hr
cm
rain 24hr
cm
rain mn
cm
humidity
%
barometer
mb
20260507141520 17 188 6.4 20.9 0.00 0.00 0.00 68 1013.8
20260507140018 18 107 1.6 14.5 0.00 0.00 0.00 64 1013.9
20260507134518 17 92 8.0 14.5 0.00 0.00 0.00 61 1014.0
20260507133019 17 152 4.8 14.5 0.00 0.00 0.00 65 1014.2
20260507131519 17 148 6.4 14.5 0.00 0.00 0.00 62 1014.2
20260507130027 18 148 8.0 20.9 0.00 0.00 0.00 61 1014.4
20260507124520 18 136 4.8 19.3 0.00 0.00 0.00 63 1014.2
20260507123013 17 160 3.2 19.3 0.00 0.00 0.00 64 1014.0
20260507121511 17 79 6.4 16.1 0.00 0.00 0.00 64 1014.0
20260507120019 17 186 8.0 24.1 0.00 0.00 0.00 65 1013.9
20260507114510 17 153 11.3 17.7 0.00 0.00 0.00 68 1013.7
20260507113009 17 283 6.4 22.5 0.00 0.00 0.00 70 1013.8
20260507111507 17 135 4.8 17.7 0.00 0.00 0.00 72 1013.9
20260507110008 17 130 9.7 19.3 0.00 0.00 0.00 73 1014.0
20260507104506 17 129 8.0 19.3 0.00 0.00 0.00 75 1014.1
20260507103015 17 146 3.2 14.5 0.00 0.00 0.00 76 1014.1
20260507101506 16 214 4.8 16.1 0.00 0.00 0.00 77 1014.2
20260507100005 17 139 3.2 11.3 0.00 0.00 0.00 75 1014.2
20260507094502 17 147 0.0 9.7 0.00 0.00 0.00 75 1014.2
20260507093113 17 254 0.0 8.0 0.00 0.00 0.00 76 1014.1
20260507091559 16 132 4.8 16.1 0.00 0.00 0.00 76 1014.0
20260507090058 16 93 4.8 20.9 0.00 0.00 0.00 76 1014.0
20260507084556 16 98 3.2 16.1 0.00 0.00 0.00 73 1013.9
20260507083055 16 199 4.8 11.3 0.00 0.00 0.00 73 1013.7
20260507081554 16 176 3.2 9.7 0.00 0.00 0.00 71 1013.8
20260507080107 16 136 0.0 8.0 0.00 0.00 0.00 68 1013.7
20260507074553 15 132 4.8 11.3 0.00 0.00 0.00 64 1013.8
20260507073052 15 87 3.2 8.0 0.00 0.00 0.00 66 1013.7
20260507071607 15 108 0.0 9.7 0.00 0.00 0.00 63 1013.6
20260507070051 15 120 1.6 6.4 0.00 0.00 0.00 64 1013.3
20260507064549 15 136 1.6 4.8 0.00 0.10 0.00 60 1013.2
20260507063047 15 115 4.8 8.0 0.00 0.10 0.00 64 1013.2
20260507061543 16 127 0.0 0.0 0.00 0.10 0.00 65 1012.8
20260507060039 14 16 0.0 0.0 0.00 0.10 0.00 67 1012.8
20260507054535 14 18 0.0 0.0 0.00 0.10 0.00 66 1012.5
20260507053052 13 25 0.0 4.8 0.00 0.10 0.00 67 1012.5
20260507051538 13 347 0.0 8.0 0.00 0.10 0.00 66 1012.2
20260507050032 12 30 4.8 12.9 0.00 0.10 0.00 66 1012.1
20260507044527 12 5 1.6 11.3 0.00 0.10 0.00 66 1012.0
20260507043025 11 328 1.6 8.0 0.00 0.10 0.00 67 1011.9
20260507041524 11 297 1.6 4.8 0.00 0.10 0.00 67 1011.8
20260507040025 11 342 0.0 4.8 0.00 0.10 0.00 66 1011.7
20260507034532 12 347 1.6 4.8 0.00 0.36 0.00 66 1011.7
20260507033033 11 6 1.6 6.4 0.00 0.36 0.00 66 1011.7
20260507031517 12 307 1.6 11.3 0.00 0.36 0.00 66 1011.6
20260507030020 12 309 4.8 12.9 0.00 0.36 0.00 66 1011.6
20260507024515 12 300 0.0 3.2 0.00 0.94 0.00 67 1011.7
20260507023023 12 302 0.0 6.4 0.00 0.94 0.00 66 1011.7
20260507021512 12 5 1.6 11.3 0.00 0.94 0.00 67 1011.6
20260507020018 12 13 4.8 12.9 0.00 0.94 0.00 68 1011.4
20260507014513 11 340 0.0 4.8 0.00 0.99 0.00 71 1011.5
20260507013009 12 354 3.2 6.4 0.00 0.99 0.00 70 1011.4
20260507011507 12 45 0.0 3.2 0.00 0.99 0.00 70 1011.4
20260507010010 12 322 0.0 4.8 0.00 0.99 0.00 71 1011.5
20260507004505 12 327 0.0 4.8 0.00 1.04 0.00 72 1011.5
20260507003004 12 224 0.0 8.0 0.00 1.04 0.00 72 1011.4
20260507001605 12 355 3.2 8.0 0.00 1.04 0.00 72 1011.4
20260507000002 12 350 0.0 4.8 0.00 1.22 0.00 72 1011.4
20260506234600 13 218 0.0 1.6 0.00 1.22 0.00 71 1011.5
20260506233100 13 345 0.0 6.4 0.00 1.22 0.00 70 1011.3
20260506231602 13 65 0.0 4.8 0.00 1.22 0.00 67 1011.4
20260506230058 13 49 0.0 0.0 0.00 1.22 0.00 70 1011.5
20260506224556 13 65 0.0 6.4 0.00 2.11 0.00 71 1011.5
20260506223055 13 96 0.0 3.2 0.00 2.11 0.00 69 1011.3
20260506221552 13 294 0.0 8.0 0.00 2.11 0.00 70 1011.2
20260506220049 13 262 0.0 4.8 0.00 2.11 0.00 68 1011.2
20260506214600 13 234 0.0 3.2 0.00 2.26 2.11 69 1011.1
20260506213047 13 274 0.0 1.6 0.00 2.26 2.11 70 1011.0
20260506211547 13 248 0.0 3.2 0.00 2.26 2.11 70 1011.0
20260506210047 15 281 1.6 8.0 0.00 2.26 2.11 66 1011.0
20260506204550 15 285 1.6 12.9 0.00 2.26 2.11 64 1010.9
20260506203046 15 258 0.0 3.2 0.00 2.26 2.11 66 1010.8
20260506201545 15 291 6.4 12.9 0.00 2.26 2.11 64 1010.6
20260506200049 16 295 1.6 6.4 0.00 2.26 2.11 62 1010.4
20260506194544 15 293 1.6 6.4 0.00 2.26 2.11 64 1010.2
20260506193043 15 304 3.2 11.3 0.00 2.26 2.11 65 1009.9
20260506191550 15 333 0.0 4.8 0.00 2.26 2.11 68 1009.7
20260506190043 15 303 3.2 8.0 0.00 2.26 2.11 66 1009.4
20260506184543 15 319 1.6 8.0 0.00 2.26 2.11 66 1009.2
20260506183048 16 235 1.6 8.0 0.00 2.26 2.11 63 1009.1
20260506181553 16 266 3.2 11.3 0.00 2.26 2.11 61 1009.1
20260506180055 17 224 4.8 19.3 0.00 2.26 2.11 59 1008.9
20260506174540 18 266 3.2 17.7 0.00 2.26 2.11 56 1008.8
20260506173042 18 290 6.4 19.3 0.00 2.26 2.11 53 1008.8
20260506171539 19 281 6.4 17.7 0.00 2.26 2.11 53 1008.7
20260506170038 19 231 11.3 22.5 0.00 2.26 2.11 51 1008.7
20260506164538 20 226 6.4 20.9 0.00 2.26 2.11 51 1008.6
20260506163038 20 231 8.0 25.7 0.00 2.26 2.11 51 1008.6
20260506161536 20 193 3.2 24.1 0.00 2.26 2.11 51 1008.4
20260506160037 20 216 9.7 30.6 0.00 2.26 2.11 51 1008.5
20260506154535 20 229 4.8 37.0 0.00 2.26 2.11 51 1008.4
20260506153034 20 188 9.7 27.4 0.00 2.26 2.11 50 1008.4
20260506151534 20 220 8.0 24.1 0.00 2.26 2.11 50 1008.4
20260506150032 20 221 9.7 25.7 0.00 2.26 2.11 49 1008.4
20260506144536 20 225 8.0 27.4 0.00 2.26 2.11 50 1008.5
20260506143031 20 250 14.5 30.6 0.00 2.26 2.11 51 1008.5